Perry County Municipal, IN

1:01 PM CDT on October 31, 2014 (GMT -0500)
Huntingburg | Change Station
CLOSE
Current Station
Airport
Location: Huntingburg,
Elevation: 528 ft
Nearby Weather Stations
Active Advisory: Freeze Warning, Special Statement

Elev 528 ft 38.25 °N, 86.95 °W | Updated 6 minutes ago

Overcast
Overcast
41 °F
Feels Like 32 °F
N
17
Wind Variable Wind from North
Gusts 28 mph

Today
High -- | Low -- °F
--% Chance of Precip.
Yesterday
High -- | Low -- °F
Precip. -- in
7:11 AM 5:48 PM
First Quarter, 57% visible
Pressure 30.08 in
Visibility 10.0 miles
Clouds Overcast 2400 ft
Windchill 32 °F
Dew Point 32 °F
Humidity 70%
Rainfall 0.00 in
Snow Depth Not available.
UV 1 out of 12
Pollen .90 out of 12
Air Quality Not available.
Flu Activity Not available.
METAR KHNB 311755Z AUTO 35015G24KT 10SM OVC024 05/00 A3008 RMK AO1 10080 20050 52007

More Conditions Fewer Conditions

Pressure 30.08 in
Visibility 10.0 miles
Clouds Overcast 2400 ft
Windchill 32 °F
Dew Point 32 °F
Humidity 70%
Rainfall 0.00 in
Snow Depth Not available.
UV 1 out of 12
Pollen .90 out of 12
Air Quality Not available.
Flu Activity Not available.
METAR KHNB 311755Z AUTO 35015G24KT 10SM OVC024 05/00 A3008 RMK AO1 10080 20050 52007

More Conditions Fewer Conditions

10-Day Weather Forecast

Almanac

Astronomy

Oct. 31, 2014 Rise Set
Actual Time
Civil Twilight
Nautical Twilight
Astronomical Twilight
Moon
Length of Visible Light
Length of Day
Tomorrow will be .
, % of the Moon is Illuminated

Today's Extremes

State Highs State Lows

Community

WunderPhotos

Upload Photos

1,766,679 photos uploaded!

WunderBlogs® & News

Nearby

Air Quality

  Air Quality AQ Index Pollutant
Not available.

Snow Depth

Station Depth Elevation

Earthquake Activity

City Distance Mag. Time & Date
Minimum magnitude displayed is 2.5.

Coastal Water Temperatures

Place Temperature

Nearby Weather Stations